TimeCST,TemperatureF,Dew PointF,Humidity,Sea Level PressureIn,VisibilityMPH,Wind Direction,Wind SpeedMPH,Gust SpeedMPH,PrecipitationIn,Events,Conditions,WindDirDegrees,DateUTC
12:15 AM,28.2,27.9,99,30.15,0.2,Calm,Calm,-,N/A,,Unknown,0,2012-11-08 06:15:00
12:35 AM,28.0,27.7,99,30.15,0.2,Calm,Calm,-,N/A,,Unknown,0,2012-11-08 06:35:00
12:55 AM,27.3,27.0,99,30.15,0.2,Calm,Calm,-,N/A,,Unknown,0,2012-11-08 06:55:00
1:15 AM,27.1,26.8,99,30.16,0.2,Calm,Calm,-,N/A,,Unknown,0,2012-11-08 07:15:00
1:35 AM,26.4,26.1,99,30.16,0.2,Calm,Calm,-,N/A,,Overcast,0,2012-11-08 07:35:00
2:15 AM,26.1,25.7,99,30.16,0.2,Calm,Calm,-,N/A,,Unknown,0,2012-11-08 08:15:00
2:35 AM,26.4,26.1,99,30.17,0.2,Calm,Calm,-,N/A,,Overcast,0,2012-11-08 08:35:00
2:55 AM,26.2,25.9,99,30.16,0.2,Calm,Calm,-,N/A,,Overcast,0,2012-11-08 08:55:00
3:15 AM,26.4,26.1,99,30.16,0.2,Calm,Calm,-,N/A,,Overcast,0,2012-11-08 09:15:00
3:35 AM,26.2,25.7,98,30.17,0.2,Calm,Calm,-,N/A,,Overcast,0,2012-11-08 09:35:00
3:55 AM,26.2,25.7,98,30.17,0.2,Calm,Calm,-,N/A,,Overcast,0,2012-11-08 09:55:00
4:15 AM,26.2,25.7,98,30.17,0.2,Calm,Calm,-,N/A,,Overcast,0,2012-11-08 10:15:00
4:35 AM,26.2,25.7,98,30.18,0.2,Calm,Calm,-,N/A,,Overcast,0,2012-11-08 10:35:00
4:55 AM,26.2,25.9,99,30.18,0.2,Calm,Calm,-,N/A,,Overcast,0,2012-11-08 10:55:00
5:15 AM,27.1,26.8,99,30.18,0.2,Calm,Calm,-,N/A,,Overcast,0,2012-11-08 11:15:00
5:35 AM,28.2,27.9,99,30.19,0.2,Calm,Calm,-,N/A,,Overcast,0,2012-11-08 11:35:00
5:55 AM,29.1,28.8,99,30.19,0.2,Calm,Calm,-,N/A,,Overcast,0,2012-11-08 11:55:00
6:15 AM,29.8,29.5,99,30.19,0.2,Calm,Calm,-,N/A,,Overcast,0,2012-11-08 12:15:00
6:35 AM,30.4,30.0,99,30.19,0.2,Calm,Calm,-,N/A,,Overcast,0,2012-11-08 12:35:00
6:55 AM,30.9,30.4,98,30.20,0.2,Calm,Calm,-,N/A,,Overcast,0,2012-11-08 12:55:00
7:15 AM,31.3,30.9,99,30.20,0.5,Calm,Calm,-,N/A,,Overcast,0,2012-11-08 13:15:00
7:35 AM,31.8,31.5,99,30.21,0.8,Calm,Calm,-,N/A,,Overcast,0,2012-11-08 13:35:00
7:55 AM,32.0,31.8,99,30.21,0.2,Calm,Calm,-,N/A,,Overcast,0,2012-11-08 13:55:00
8:15 AM,32.7,32.4,99,30.22,1.5,Calm,Calm,-,N/A,,Overcast,0,2012-11-08 14:15:00
8:35 AM,33.8,33.4,99,30.22,1.0,Calm,Calm,-,N/A,,Overcast,0,2012-11-08 14:35:00
8:55 AM,35.2,34.9,99,30.22,1.5,Calm,Calm,-,N/A,,Overcast,0,2012-11-08 14:55:00
9:15 AM,36.5,36.1,99,30.22,2.0,Calm,Calm,-,N/A,,Overcast,0,2012-11-08 15:15:00
9:35 AM,37.8,37.4,99,30.22,1.5,South,3.5,-,N/A,,Overcast,190,2012-11-08 15:35:00
9:55 AM,38.8,38.5,99,30.22,1.5,SSW,4.6,-,N/A,,Overcast,200,2012-11-08 15:55:00
10:15 AM,39.6,38.8,97,30.22,1.5,SW,3.5,-,N/A,,Overcast,220,2012-11-08 16:15:00
10:35 AM,40.3,39.7,98,30.22,1.5,SW,4.6,-,N/A,,Overcast,230,2012-11-08 16:35:00
10:55 AM,40.8,40.3,98,30.22,1.8,SW,5.8,-,N/A,,Overcast,220,2012-11-08 16:55:00
11:15 AM,41.0,40.5,98,30.21,2.0,SW,4.6,-,N/A,,Overcast,220,2012-11-08 17:15:00
11:35 AM,41.2,40.8,99,30.20,2.5,SW,5.8,-,N/A,,Overcast,220,2012-11-08 17:35:00
11:55 AM,41.7,41.2,98,30.20,2.5,SW,4.6,-,N/A,,Overcast,220,2012-11-08 17:55:00
12:15 PM,42.1,41.5,98,30.20,3.0,SW,5.8,-,N/A,,Overcast,230,2012-11-08 18:15:00
12:35 PM,42.1,41.5,98,30.19,4.0,SW,5.8,-,N/A,,Overcast,220,2012-11-08 18:35:00
12:55 PM,42.6,41.7,97,30.18,4.0,SSW,4.6,-,N/A,,Overcast,210,2012-11-08 18:55:00
1:15 PM,42.6,41.7,97,30.18,5.0,SSW,5.8,-,N/A,,Overcast,200,2012-11-08 19:15:00
1:35 PM,43.0,41.5,95,30.17,5.0,South,5.8,-,N/A,,Overcast,190,2012-11-08 19:35:00
1:55 PM,43.9,40.1,87,30.16,7.0,SSW,8.1,-,N/A,,Overcast,210,2012-11-08 19:55:00
2:15 PM,44.2,38.3,80,30.16,7.0,SSW,6.9,-,N/A,,Overcast,210,2012-11-08 20:15:00
2:35 PM,44.2,36.7,75,30.15,7.0,SW,6.9,-,N/A,,Overcast,220,2012-11-08 20:35:00
2:55 PM,44.2,35.8,72,30.15,10.0,SW,8.1,-,N/A,,Overcast,220,2012-11-08 20:55:00
3:15 PM,44.1,34.7,70,30.15,10.0,SSW,8.1,-,N/A,,Overcast,210,2012-11-08 21:15:00
3:35 PM,44.1,34.3,69,30.16,10.0,SW,10.4,-,N/A,,Overcast,220,2012-11-08 21:35:00
3:55 PM,43.7,34.7,71,30.15,10.0,SSW,8.1,-,N/A,,Overcast,210,2012-11-08 21:55:00
4:15 PM,43.7,34.9,71,30.15,10.0,SSW,6.9,-,N/A,,Overcast,210,2012-11-08 22:15:00
4:35 PM,43.2,34.7,72,30.15,10.0,SW,8.1,-,N/A,,Overcast,220,2012-11-08 22:35:00
4:55 PM,42.8,34.7,73,30.15,10.0,SW,6.9,-,N/A,,Overcast,220,2012-11-08 22:55:00
5:15 PM,42.6,34.2,72,30.15,10.0,SSW,5.8,-,N/A,,Overcast,210,2012-11-08 23:15:00
5:35 PM,41.9,34.3,75,30.15,10.0,SSW,3.5,-,N/A,,Overcast,210,2012-11-08 23:35:00
5:55 PM,41.9,34.3,75,30.15,10.0,SSW,3.5,-,N/A,,Overcast,210,2012-11-08 23:55:00
6:15 PM,41.7,34.9,77,30.15,7.0,Calm,Calm,-,N/A,,Overcast,0,2012-11-09 00:15:00
6:35 PM,41.4,35.2,79,30.15,7.0,South,4.6,-,N/A,,Overcast,180,2012-11-09 00:35:00
6:55 PM,40.5,34.9,80,30.15,7.0,South,4.6,-,N/A,,Mostly Cloudy,190,2012-11-09 00:55:00
7:15 PM,38.5,33.4,82,30.14,7.0,South,5.8,-,N/A,,Clear,180,2012-11-09 01:15:00
7:35 PM,37.4,33.1,84,30.14,7.0,South,4.6,-,N/A,,Clear,170,2012-11-09 01:35:00
7:55 PM,37.6,33.4,85,30.14,7.0,South,4.6,-,N/A,,Clear,170,2012-11-09 01:55:00
8:15 PM,37.0,33.1,86,30.14,7.0,South,5.8,-,N/A,,Clear,170,2012-11-09 02:15:00
8:35 PM,34.2,32.0,92,30.14,7.0,South,5.8,-,N/A,,Clear,170,2012-11-09 02:35:00
9:15 PM,33.8,31.8,92,30.14,7.0,SSE,5.8,-,N/A,,Clear,160,2012-11-09 03:15:00
9:35 PM,32.7,31.5,95,30.13,7.0,SSE,5.8,-,N/A,,Clear,160,2012-11-09 03:35:00
10:15 PM,32.9,31.8,96,30.13,5.0,SSE,5.8,-,N/A,,Clear,160,2012-11-09 04:15:00
10:35 PM,32.5,31.5,96,30.13,5.0,SSE,4.6,-,N/A,,Clear,160,2012-11-09 04:35:00
11:15 PM,33.8,32.4,94,30.13,5.0,SSE,4.6,-,N/A,,Clear,160,2012-11-09 05:15:00
11:35 PM,33.8,32.2,94,30.13,5.0,South,4.6,-,N/A,,Clear,170,2012-11-09 05:35:00